^^
B2 Weather Station Historical Data
Daily Summary for December 29, 2018 Units:  English    Metric   Both
Daily Weekly Monthly Yearly Custom
  High: Low: Average:
Temperature: 27.7 °F 23.9 °F 26.7 °F
Dew Point: 26 °F 20 °F 24.3 °F
Humidity: 94% 85% 91%
Wind Speed: 17.3mph 1.2mph 7.8mph
Wind Gust: 11.5mph - -
Wind- - West
Pressure: 30.38 in 30.19 in -
Precipitation: 0 in    
Historical Graphs
 
 
Tabular Data for December 29, 2018
Time Temperature Dew Point Pressure Wind Wind Speed Wind Gust Humidity Rainfall Rate (Hourly) solar
00:04 27.1 °F 24.6 °F 30.19 in WNW 11.5 mph 7.9 mph 90% 0 in 0.00 W/m2
00:09 26.9 °F 24.4 °F 30.20 in West 11.5 mph 5.6 mph 90% 0 in 0.00 W/m2
00:14 27 °F 24.5 °F 30.20 in West 11.5 mph 7.6 mph 90% 0 in 0.00 W/m2
00:19 27 °F 24.5 °F 30.20 in WSW 10.4 mph 5 mph 90% 0 in 0.00 W/m2
00:24 27 °F 24.5 °F 30.20 in West 12.7 mph 8.1 mph 90% 0 in 0.00 W/m2
00:29 26.9 °F 24.4 °F 30.20 in WSW 11 mph 5.9 mph 90% 0 in 0.00 W/m2
00:34 26.9 °F 24.4 °F 30.20 in North 10.4 mph 8 mph 90% 0 in 0.00 W/m2
00:39 26.9 °F 24.4 °F 30.21 in WSW 11.5 mph 6.7 mph 90% 0 in 0.00 W/m2
00:44 26.9 °F 24.1 °F 30.20 in West 11.5 mph 7.2 mph 89% 0 in 0.00 W/m2
00:49 26.9 °F 24.4 °F 30.21 in SW 9.2 mph 6.9 mph 90% 0 in 0.00 W/m2
00:54 26.9 °F 24.1 °F 30.21 in North 12 mph 7.1 mph 89% 0 in 0.00 W/m2
00:59 26.9 °F 24.1 °F 30.21 in SW 10.4 mph 4.8 mph 89% 0 in 0.00 W/m2
01:04 26.9 °F 24.1 °F 30.21 in WNW 9.2 mph 4.5 mph 89% 0 in 0.00 W/m2
01:09 26.9 °F 24.1 °F 30.21 in North 10.4 mph 5.7 mph 89% 0 in 0.00 W/m2
01:14 26.9 °F 24.1 °F 30.21 in North 9.2 mph 5.1 mph 89% 0 in 0.00 W/m2
01:19 26.9 °F 24.1 °F 30.21 in North 11.5 mph 6.8 mph 89% 0 in 0.00 W/m2
01:24 26.9 °F 24.1 °F 30.22 in WSW 11.5 mph 6 mph 89% 0 in 0.00 W/m2
01:29 26.9 °F 24.1 °F 30.22 in North 8 mph 7.5 mph 89% 0 in 0.00 W/m2
01:34 26.8 °F 24 °F 30.22 in SSW 10.4 mph 5.8 mph 89% 0 in 0.00 W/m2
01:39 26.9 °F 24.1 °F 30.22 in WSW 13.8 mph 8.4 mph 89% 0 in 0.00 W/m2
01:44 26.9 °F 24.1 °F 30.23 in WSW 6.9 mph 5.9 mph 89% 0 in 0.00 W/m2
01:49 26.9 °F 24.1 °F 30.23 in WSW 10.4 mph 5.7 mph 89% 0 in 0.00 W/m2
01:54 26.8 °F 24 °F 30.24 in North 9.2 mph 3.5 mph 89% 0 in 0.00 W/m2
01:59 26.9 °F 24.1 °F 30.24 in West 9.2 mph 4.8 mph 89% 0 in 0.00 W/m2
02:04 26.9 °F 24.1 °F 30.24 in NW 10.4 mph 6.7 mph 89% 0 in 0.00 W/m2
02:09 27 °F 24.2 °F 30.25 in SW 10.4 mph 5.7 mph 89% 0 in 0.00 W/m2
02:14 27 °F 24.2 °F 30.25 in North 11 mph 4.8 mph 89% 0 in 0.00 W/m2
02:19 27 °F 24.2 °F 30.25 in WNW 11.5 mph 4.3 mph 89% 0 in 0.00 W/m2
02:24 27 °F 24.2 °F 30.25 in West 9.2 mph 3.7 mph 89% 0 in 0.00 W/m2
02:29 27.1 °F 24.3 °F 30.25 in WNW 13 mph 4.4 mph 89% 0 in 0.00 W/m2
02:34 27.2 °F 24.4 °F 30.25 in WSW 8.1 mph 2.3 mph 89% 0 in 0.00 W/m2
02:39 27.2 °F 24.4 °F 30.25 in North 12.7 mph 5.7 mph 89% 0 in 0.00 W/m2
02:44 27.1 °F 24 °F 30.25 in WNW 10.4 mph 6 mph 88% 0 in 0.00 W/m2
02:49 27 °F 23.9 °F 30.25 in WNW 12.7 mph 6.7 mph 88% 0 in 0.00 W/m2
02:54 27 °F 23.9 °F 30.25 in North 11.5 mph 6.8 mph 88% 0 in 0.00 W/m2
02:59 27 °F 23.9 °F 30.25 in West 5.8 mph 3.9 mph 88% 0 in 0.00 W/m2
03:04 27 °F 24.2 °F 30.25 in WSW 6.9 mph 4.5 mph 89% 0 in 0.00 W/m2
03:09 27 °F 23.9 °F 30.25 in North 6.9 mph 5.5 mph 88% 0 in 0.00 W/m2
03:14 27 °F 24.2 °F 30.26 in North 10.4 mph 3.5 mph 89% 0 in 0.00 W/m2
03:19 27 °F 23.9 °F 30.26 in WSW 6.9 mph 4.5 mph 88% 0 in 0.00 W/m2
03:24 27 °F 24.2 °F 30.26 in West 10.4 mph 3.9 mph 89% 0 in 0.00 W/m2
03:29 27 °F 24.2 °F 30.26 in WSW 10 mph 4.6 mph 89% 0 in 0.00 W/m2
03:34 27 °F 24.2 °F 30.27 in WNW 9.2 mph 5.7 mph 89% 0 in 0.00 W/m2
03:39 27 °F 24.2 °F 30.27 in West 9.2 mph 3.5 mph 89% 0 in 0.00 W/m2
03:44 27 °F 24.2 °F 30.27 in North 9.2 mph 6.3 mph 89% 0 in 0.00 W/m2
03:49 27 °F 24.2 °F 30.27 in North 8 mph 4.9 mph 89% 0 in 0.00 W/m2
03:54 27 °F 24.2 °F 30.27 in North 9.2 mph 5.1 mph 89% 0 in 0.00 W/m2
03:59 27 °F 24.2 °F 30.27 in West 6.9 mph 5 mph 89% 0 in 0.00 W/m2
04:04 27 °F 24.2 °F 30.27 in WSW 5.8 mph 3.5 mph 89% 0 in 0.00 W/m2
04:09 27 °F 24.2 °F 30.27 in WNW 10.4 mph 5.3 mph 89% 0 in 0.00 W/m2
04:14 27 °F 24.2 °F 30.27 in WNW 11.5 mph 7.3 mph 89% 0 in 0.00 W/m2
04:19 27 °F 24.2 °F 30.27 in WSW 10.4 mph 6.9 mph 89% 0 in 0.00 W/m2
04:24 27 °F 24.2 °F 30.27 in WNW 9 mph 4.8 mph 89% 0 in 0.00 W/m2
04:29 27 °F 24.2 °F 30.27 in North 4.6 mph 3.8 mph 89% 0 in 0.00 W/m2
04:34 26.9 °F 24.1 °F 30.27 in WSW 11.5 mph 4.7 mph 89% 0 in 0.00 W/m2
04:39 26.9 °F 24.4 °F 30.27 in WNW 6.9 mph 4 mph 90% 0 in 0.00 W/m2
04:44 26.9 °F 24.4 °F 30.28 in WNW 8.1 mph 4.6 mph 90% 0 in 0.00 W/m2
04:49 26.9 °F 24.4 °F 30.28 in West 6.9 mph 3 mph 90% 0 in 0.00 W/m2
04:54 26.9 °F 24.4 °F 30.28 in WSW 6.9 mph 3.4 mph 90% 0 in 0.00 W/m2
04:59 26.8 °F 24.3 °F 30.29 in North 8.1 mph 3.8 mph 90% 0 in 0.00 W/m2
05:04 26.8 °F 24.5 °F 30.29 in WNW 8 mph 3.9 mph 91% 0 in 0.00 W/m2
05:09 26.7 °F 24.4 °F 30.30 in SW 8.1 mph 6 mph 91% 0 in 0.00 W/m2
05:14 26.7 °F 24.4 °F 30.30 in West 9.2 mph 3.3 mph 91% 0 in 0.00 W/m2
05:19 26.8 °F 24.5 °F 30.30 in North 7 mph 4.1 mph 91% 0 in 0.00 W/m2
05:24 26.8 °F 24.5 °F 30.31 in West 6.9 mph 3.8 mph 91% 0 in 0.00 W/m2
05:29 26.9 °F 24.6 °F 30.31 in WSW 5.8 mph 4.2 mph 91% 0 in 0.00 W/m2
05:34 26.9 °F 24.6 °F 30.31 in North 6.9 mph 2.2 mph 91% 0 in 0.00 W/m2
05:39 26.9 °F 24.6 °F 30.31 in WSW 6.9 mph 3.4 mph 91% 0 in 0.00 W/m2
05:44 26.9 °F 24.9 °F 30.32 in North 5.8 mph 4.9 mph 92% 0 in 0.00 W/m2
05:49 26.8 °F 24.8 °F 30.32 in North 8.1 mph 4.8 mph 92% 0 in 0.00 W/m2
05:54 26.7 °F 24.7 °F 30.32 in WNW 4.6 mph 2.8 mph 92% 0 in 0.00 W/m2
05:59 26.7 °F 24.7 °F 30.33 in North 4.6 mph 3 mph 92% 0 in 0.00 W/m2
06:04 26.6 °F 24.6 °F 30.33 in North 10.4 mph 5.1 mph 92% 0 in 0.00 W/m2
06:09 26.6 °F 24.6 °F 30.33 in West 9.2 mph 2.7 mph 92% 0 in 0.00 W/m2
06:14 26.6 °F 24.6 °F 30.33 in WSW 9.2 mph 4.2 mph 92% 0 in 0.00 W/m2
06:19 26.5 °F 24.8 °F 30.34 in SW 6.9 mph 4.4 mph 93% 0 in 0.00 W/m2
06:24 26.5 °F 24.5 °F 30.34 in West 4.6 mph 2.3 mph 92% 0 in 0.00 W/m2
06:29 26.5 °F 24.8 °F 30.34 in WSW 9.2 mph 6.3 mph 93% 0 in 0.00 W/m2
06:34 26.5 °F 24.8 °F 30.34 in WSW 11.5 mph 6.5 mph 93% 0 in 0.00 W/m2
06:39 26.5 °F 24.8 °F 30.34 in North 6.9 mph 5.3 mph 93% 0 in 0.00 W/m2
06:44 26.5 °F 24.8 °F 30.35 in WSW 4.6 mph 1.9 mph 93% 0 in 0.00 W/m2
06:49 26.5 °F 24.8 °F 30.35 in SW 8 mph 4.8 mph 93% 0 in 0.00 W/m2
06:54 26.4 °F 24.7 °F 30.35 in WSW 9.2 mph 5.8 mph 93% 0 in 0.00 W/m2
06:59 26.3 °F 24.6 °F 30.35 in North 7 mph 4.7 mph 93% 0 in 0.00 W/m2
07:04 26.3 °F 24.6 °F 30.35 in West 9.2 mph 4.9 mph 93% 0 in 0.00 W/m2
07:09 26.2 °F 24.5 °F 30.36 in West 10.4 mph 5.8 mph 93% 0 in 0.00 W/m2
07:14 26.2 °F 24.5 °F 30.36 in West 8.1 mph 6.3 mph 93% 0 in 0.00 W/m2
07:19 26.2 °F 24.5 °F 30.36 in SW 9.2 mph 6 mph 93% 0 in 0.00 W/m2
07:24 26.1 °F 24.4 °F 30.36 in WNW 11.5 mph 5.5 mph 93% 0 in 0.00 W/m2
07:29 26.1 °F 24.4 °F 30.36 in North 4.6 mph 3.6 mph 93% 0 in 0.00 W/m2
07:34 26.2 °F 24.5 °F 30.36 in North 11.5 mph 5.9 mph 93% 0 in 0.00 W/m2
07:39 26.1 °F 24.4 °F 30.37 in North 8.1 mph 5.8 mph 93% 0 in 0.00 W/m2
07:44 26.1 °F 24.6 °F 30.37 in West 8.1 mph 5.3 mph 94% 0 in 5.00 W/m2
07:49 26.1 °F 24.6 °F 30.37 in North 9.2 mph 5 mph 94% 0 in 5.00 W/m2
07:54 26.2 °F 24.7 °F 30.37 in WSW 8 mph 6.8 mph 94% 0 in 11.00 W/m2
07:59 26.1 °F 24.6 °F 30.37 in North 10.4 mph 5 mph 94% 0 in 12.00 W/m2
08:04 26.1 °F 24.6 °F 30.37 in SW 6 mph 3.3 mph 94% 0 in 14.00 W/m2
08:09 26.2 °F 24.7 °F 30.37 in WSW 4.6 mph 4.2 mph 94% 0 in 19.00 W/m2
08:14 26.2 °F 24.7 °F 30.38 in West 6.9 mph 4.7 mph 94% 0 in 19.00 W/m2
08:19 26.2 °F 24.7 °F 30.38 in North 4.6 mph 3.8 mph 94% 0 in 23.00 W/m2
08:24 26.2 °F 24.7 °F 30.38 in WSW 5.8 mph 1.9 mph 94% 0 in 26.00 W/m2
08:29 26.2 °F 24.7 °F 30.38 in WSW 5.8 mph 3 mph 94% 0 in 28.00 W/m2
08:34 26.2 °F 24.7 °F 30.38 in WNW 5.8 mph 3.4 mph 94% 0 in 30.00 W/m2
08:39 26.3 °F 24.8 °F 30.38 in WSW 1.2 mph 0.4 mph 94% 0 in 32.00 W/m2
08:44 26.3 °F 24.8 °F 30.38 in WNW 5 mph 3.3 mph 94% 0 in 33.00 W/m2
08:49 26.3 °F 24.8 °F 30.38 in North 6.9 mph 1.6 mph 94% 0 in 39.00 W/m2
08:54 26.4 °F 24.9 °F 30.38 in WNW 3.5 mph 1.7 mph 94% 0 in 46.00 W/m2
08:59 26.4 °F 24.9 °F 30.37 in WSW 3.5 mph 2.3 mph 94% 0 in 47.00 W/m2
09:04 26.5 °F 25 °F 30.37 in WSW 4.6 mph 3.7 mph 94% 0 in 53.00 W/m2
09:09 26.5 °F 25 °F 30.36 in WNW 2.3 mph 1.9 mph 94% 0 in 56.00 W/m2
09:14 26.5 °F 25 °F 30.36 in WNW 1.2 mph   94% 0 in 65.00 W/m2
09:19 26.6 °F 25.1 °F 30.36 in WNW 2.3 mph 0.5 mph 94% 0 in 69.00 W/m2
09:24 26.7 °F 25.2 °F 30.36 in West 2.3 mph 0.7 mph 94% 0 in 70.00 W/m2
09:29 26.9 °F 25.4 °F 30.36 in West 3.5 mph 0.3 mph 94% 0 in 74.00 W/m2
09:34 27 °F 25.5 °F 30.37 in WSW 3.5 mph 1.1 mph 94% 0 in 63.00 W/m2
09:39 27 °F 25.5 °F 30.37 in West 2.3 mph 0.2 mph 94% 0 in 63.00 W/m2
09:44 27.1 °F 25.6 °F 30.37 in West 3.5 mph 0.9 mph 94% 0 in 63.00 W/m2
09:49 27.2 °F 25.7 °F 30.37 in North 3.5 mph 1.8 mph 94% 0 in 62.00 W/m2
09:54 27.2 °F 25.7 °F 30.37 in WSW 3.5 mph 2.2 mph 94% 0 in 62.00 W/m2
09:59 27.2 °F 25.7 °F 30.37 in North 3.5 mph 1.5 mph 94% 0 in 62.00 W/m2
10:04 27.3 °F 25.8 °F 30.37 in SW 3.5 mph 2.7 mph 94% 0 in 49.00 W/m2
10:09 27.2 °F 25.7 °F 30.38 in WSW 4 mph 2.9 mph 94% 0 in 51.00 W/m2
10:14 27.2 °F 25.7 °F 30.38 in SW 4 mph 2.9 mph 94% 0 in 47.00 W/m2
10:19 27.1 °F 25.6 °F 30.38 in SW 4.6 mph 4.2 mph 94% 0 in 44.00 W/m2
10:24 27 °F 25.5 °F 30.38 in SW 5 mph 4.9 mph 94% 0 in 42.00 W/m2
10:29 27 °F 25.5 °F 30.38 in West 2.3 mph 2 mph 94% 0 in 40.00 W/m2
10:34 27 °F 25.5 °F 30.37 in WSW 5.8 mph 3.6 mph 94% 0 in 44.00 W/m2
10:39 27 °F 25.5 °F 30.36 in North 5.8 mph 3.2 mph 94% 0 in 51.00 W/m2
10:44 26.9 °F 25.4 °F 30.36 in SW 4 mph 2.5 mph 94% 0 in 58.00 W/m2
10:49 26.9 °F 25.4 °F 30.36 in WSW 4.6 mph 3 mph 94% 0 in 58.00 W/m2
10:54 27 °F 25.5 °F 30.36 in WSW 5.8 mph 2.7 mph 94% 0 in 53.00 W/m2
10:59 27 °F 25.5 °F 30.36 in North 5.8 mph 3.6 mph 94% 0 in 54.00 W/m2
11:04 27.1 °F 25.6 °F 30.35 in WSW 3.5 mph 3.5 mph 94% 0 in 58.00 W/m2
11:09 27 °F 25.5 °F 30.35 in WSW 6.9 mph 5 mph 94% 0 in 63.00 W/m2
11:14 26.9 °F 25.4 °F 30.35 in WSW 5.8 mph 4 mph 94% 0 in 63.00 W/m2
11:19 27 °F 25.5 °F 30.35 in North 5.8 mph 2.7 mph 94% 0 in 65.00 W/m2
11:24 27 °F 25.5 °F 30.35 in WSW 4.6 mph 3.2 mph 94% 0 in 69.00 W/m2
11:29 27.1 °F 25.6 °F 30.34 in WNW 4 mph 1.6 mph 94% 0 in 77.00 W/m2
11:34 27 °F 25.5 °F 30.34 in WSW 4.6 mph 5.1 mph 94% 0 in 81.00 W/m2
11:39 27 °F 25.5 °F 30.34 in SW 5.8 mph 3.3 mph 94% 0 in 76.00 W/m2
11:44 27.1 °F 25.6 °F 30.34 in SW 5.8 mph 2.8 mph 94% 0 in 79.00 W/m2
11:49 27 °F 25.5 °F 30.34 in West 5.8 mph 3.5 mph 94% 0 in 77.00 W/m2
11:54 27 °F 25.5 °F 30.33 in West 4.6 mph 1.5 mph 94% 0 in 84.00 W/m2
11:59 27.1 °F 25.6 °F 30.33 in SW 6.9 mph 4.2 mph 94% 0 in 79.00 W/m2
12:04 27.1 °F 25.6 °F 30.33 in SW 5 mph 4.5 mph 94% 0 in 77.00 W/m2
12:09 27 °F 25.5 °F 30.33 in WSW 6.9 mph 2.4 mph 94% 0 in 83.00 W/m2
12:14 27 °F 25.5 °F 30.34 in West 4.6 mph 3.3 mph 94% 0 in 70.00 W/m2
12:19 27.1 °F 25.6 °F 30.34 in North 5 mph 4.1 mph 94% 0 in 65.00 W/m2
12:24 27.1 °F 25.6 °F 30.33 in WSW 5.8 mph 3.3 mph 94% 0 in 65.00 W/m2
12:29 27.1 °F 25.6 °F 30.33 in SW 4.6 mph 3.7 mph 94% 0 in 72.00 W/m2
12:34 27.2 °F 25.7 °F 30.33 in SW 8.1 mph 2.8 mph 94% 0 in 76.00 W/m2
12:39 27 °F 25.5 °F 30.33 in WSW 8.1 mph 3.9 mph 94% 0 in 70.00 W/m2
12:44 27 °F 25.5 °F 30.34 in SW 5.8 mph 3.7 mph 94% 0 in 72.00 W/m2
12:49 27.1 °F 25.6 °F 30.33 in SW 5.8 mph 4.2 mph 94% 0 in 65.00 W/m2
12:54 27.1 °F 25.6 °F 30.33 in WSW 5.8 mph 2.2 mph 94% 0 in 76.00 W/m2
12:59 27.1 °F 25.6 °F 30.32 in WSW 5 mph 3.5 mph 94% 0 in 81.00 W/m2
13:04 27.2 °F 25.7 °F 30.32 in North 3.5 mph 2.4 mph 94% 0 in 79.00 W/m2
13:09 27.2 °F 25.7 °F 30.32 in WSW 4.6 mph 1.7 mph 94% 0 in 70.00 W/m2
13:14 27.2 °F 25.7 °F 30.32 in WSW 9.2 mph 4.1 mph 94% 0 in 72.00 W/m2
13:19 27.2 °F 25.7 °F 30.32 in SW 5.8 mph 4.2 mph 94% 0 in 74.00 W/m2
13:24 27.2 °F 25.7 °F 30.32 in SW 5.8 mph 3.4 mph 94% 0 in 79.00 W/m2
13:29 27.3 °F 25.8 °F 30.32 in SW 4.6 mph 3.2 mph 94% 0 in 74.00 W/m2
13:34 27.4 °F 25.9 °F 30.32 in WSW 6.9 mph 2.5 mph 94% 0 in 49.00 W/m2
13:39 27.5 °F 26 °F 30.32 in SW 4.6 mph 1.8 mph 94% 0 in 76.00 W/m2
13:44 27.5 °F 26 °F 30.31 in North 5 mph 1.3 mph 94% 0 in 74.00 W/m2
13:49 27.4 °F 25.9 °F 30.31 in SW 4.6 mph 3.4 mph 94% 0 in 47.00 W/m2
13:54 27.4 °F 25.9 °F 30.31 in SW 3.5 mph 2.3 mph 94% 0 in 39.00 W/m2
13:59 27.4 °F 25.9 °F 30.31 in North 2.3 mph 1.7 mph 94% 0 in 39.00 W/m2
14:04 27.4 °F 25.9 °F 30.31 in West 3.5 mph 2.2 mph 94% 0 in 33.00 W/m2
14:09 27.4 °F 25.9 °F 30.31 in West 3.5 mph 0.2 mph 94% 0 in 35.00 W/m2
14:14 27.4 °F 25.9 °F 30.31 in North 5.8 mph 2.1 mph 94% 0 in 42.00 W/m2
14:19 27.4 °F 25.9 °F 30.31 in North 3.5 mph 4 mph 94% 0 in 47.00 W/m2
14:24 27.4 °F 25.6 °F 30.31 in SSW 3.5 mph 0.8 mph 93% 0 in 40.00 W/m2
14:29 27.4 °F 25.6 °F 30.31 in SW 3.5 mph 3.4 mph 93% 0 in 39.00 W/m2
14:34 27.4 °F 25.6 °F 30.31 in SW 3.5 mph 1.9 mph 93% 0 in 30.00 W/m2
14:39 27.4 °F 25.6 °F 30.31 in WSW 6.9 mph 4.5 mph 93% 0 in 35.00 W/m2
14:44 27.3 °F 25.5 °F 30.31 in WSW 4.6 mph 2.2 mph 93% 0 in 28.00 W/m2
14:49 27.3 °F 25.5 °F 30.31 in WSW 6.9 mph 2.1 mph 93% 0 in 23.00 W/m2
14:54 27.3 °F 25.5 °F 30.31 in SSW 5 mph 3.1 mph 93% 0 in 23.00 W/m2
14:59 27.3 °F 25.5 °F 30.32 in South 3.5 mph 3.8 mph 93% 0 in 21.00 W/m2
15:04 27.3 °F 25.5 °F 30.32 in SW 6 mph 3.8 mph 93% 0 in 16.00 W/m2
15:09 27.2 °F 25.4 °F 30.31 in SSW 9.2 mph 5.5 mph 93% 0 in 18.00 W/m2
15:14 27.3 °F 25.5 °F 30.31 in WSW 5.8 mph 2.8 mph 93% 0 in 14.00 W/m2
15:19 27.2 °F 25.4 °F 30.31 in SW 10.4 mph 2.4 mph 93% 0 in 12.00 W/m2
15:24 27.2 °F 25.4 °F 30.30 in South 3.5 mph 2 mph 93% 0 in 12.00 W/m2
15:29 27.3 °F 25.5 °F 30.30 in SW 4.6 mph 2.6 mph 93% 0 in 16.00 W/m2
15:34 27.2 °F 25.4 °F 30.30 in SSW 5.8 mph 1.7 mph 93% 0 in 14.00 W/m2
15:39 27.3 °F 25.5 °F 30.29 in SSW 5 mph 2.1 mph 93% 0 in 12.00 W/m2
15:44 27.4 °F 25.6 °F 30.30 in South 7 mph 3.9 mph 93% 0 in 14.00 W/m2
15:49 27.4 °F 25.6 °F 30.29 in SSW 3.5 mph 0.5 mph 93% 0 in 11.00 W/m2
15:54 27.4 °F 25.4 °F 30.28 in SW 6 mph 2.7 mph 92% 0 in 7.00 W/m2
15:59 27.4 °F 25.4 °F 30.28 in SSW 4.6 mph 2.4 mph 92% 0 in 7.00 W/m2
16:04 27.4 °F 25.4 °F 30.28 in SSW 3.5 mph 0.8 mph 92% 0 in 5.00 W/m2
16:10 27.4 °F 25.4 °F 30.28 in SW 3.5 mph 1.3 mph 92% 0 in 0.00 W/m2
16:14 27.3 °F 25.3 °F 30.28 in SW 8.1 mph 3.1 mph 92% 0 in 0.00 W/m2
16:19 27.3 °F 25.3 °F 30.29 in SW 5.8 mph 3.9 mph 92% 0 in 0.00 W/m2
16:24 27.2 °F 25.2 °F 30.29 in SSW 5.8 mph 2.6 mph 92% 0 in 0.00 W/m2
16:29 27.3 °F 25.3 °F 30.30 in SW 6 mph 4 mph 92% 0 in 0.00 W/m2
16:34 27.4 °F 25.4 °F 30.30 in SSW 5.8 mph 4.1 mph 92% 0 in 0.00 W/m2
16:39 27.4 °F 25.1 °F 30.30 in SSW 4.6 mph 3.6 mph 91% 0 in 0.00 W/m2
16:44 27.3 °F 25 °F 30.30 in SW 8 mph 6 mph 91% 0 in 0.00 W/m2
16:49 27.3 °F 25 °F 30.30 in WSW 9.2 mph 2.8 mph 91% 0 in 0.00 W/m2
16:54 27.4 °F 25.1 °F 30.30 in SW 4.6 mph 4.3 mph 91% 0 in 0.00 W/m2
16:59 27.4 °F 25.1 °F 30.30 in SSW 6.9 mph 1.8 mph 91% 0 in 0.00 W/m2
17:04 27.3 °F 25 °F 30.29 in South 5.8 mph 2.6 mph 91% 0 in 0.00 W/m2
17:09 27.3 °F 25 °F 30.29 in SW 5 mph 1.9 mph 91% 0 in 0.00 W/m2
17:14 27.4 °F 25.1 °F 30.29 in WSW 4 mph 3.2 mph 91% 0 in 0.00 W/m2
17:19 27.4 °F 24.9 °F 30.28 in SW 6.9 mph 2.6 mph 90% 0 in 0.00 W/m2
17:24 27.4 °F 24.9 °F 30.28 in SSW 6.9 mph 2.3 mph 90% 0 in 0.00 W/m2
17:29 27.4 °F 24.9 °F 30.27 in SW 4.6 mph 1.3 mph 90% 0 in 0.00 W/m2
17:34 27.5 °F 25 °F 30.27 in SSW 2.3 mph 0.8 mph 90% 0 in 0.00 W/m2
17:39 27.5 °F 25 °F 30.27 in SW 3.5 mph 1.6 mph 90% 0 in 0.00 W/m2
17:44 27.5 °F 25 °F 30.27 in SW 2.3 mph 1.1 mph 90% 0 in 0.00 W/m2
17:49 27.5 °F 25 °F 30.27 in SW 3.5 mph 3 mph 90% 0 in 0.00 W/m2
17:54 27.6 °F 25.1 °F 30.27 in SSW 4.6 mph 2.2 mph 90% 0 in 0.00 W/m2
17:59 27.5 °F 25 °F 30.27 in SSW 4 mph 2.2 mph 90% 0 in 0.00 W/m2
18:04 27.6 °F 25.1 °F 30.27 in SSW 4 mph 3.1 mph 90% 0 in 0.00 W/m2
18:09 27.6 °F 25.1 °F 30.27 in SW 6 mph 2.6 mph 90% 0 in 0.00 W/m2
18:14 27.6 °F 25.1 °F 30.27 in SSW 5 mph 1.4 mph 90% 0 in 0.00 W/m2
18:19 27.6 °F 25.1 °F 30.28 in South 9.2 mph 6.2 mph 90% 0 in 0.00 W/m2
18:24 27.7 °F 25.2 °F 30.28 in South 8.1 mph 3.7 mph 90% 0 in 0.00 W/m2
18:29 27.6 °F 25.1 °F 30.28 in South 4.6 mph 5.1 mph 90% 0 in 0.00 W/m2
18:34 27.6 °F 24.8 °F 30.28 in SW 6.9 mph 3.8 mph 89% 0 in 0.00 W/m2
18:39 27.5 °F 24.7 °F 30.28 in SW 8.1 mph 5.1 mph 89% 0 in 0.00 W/m2
18:44 27.5 °F 24.4 °F 30.28 in SSW 8.1 mph 5.1 mph 88% 0 in 0.00 W/m2
18:49 27.4 °F 24.3 °F 30.28 in South 8.1 mph 4.8 mph 88% 0 in 0.00 W/m2
18:54 27.4 °F 24.3 °F 30.28 in WSW 6.9 mph 4.8 mph 88% 0 in 0.00 W/m2
18:59 27.3 °F 24.2 °F 30.28 in SSW 6.9 mph 4.2 mph 88% 0 in 0.00 W/m2
19:04 27.2 °F 24.1 °F 30.29 in SW 12.7 mph 4.3 mph 88% 0 in 0.00 W/m2
19:09 27.1 °F 23.7 °F 30.28 in SW 12.7 mph 7.3 mph 87% 0 in 0.00 W/m2
19:14 27.1 °F 23.7 °F 30.28 in WSW 13 mph 7.3 mph 87% 0 in 0.00 W/m2
19:19 27 °F 23.9 °F 30.28 in WSW 10.4 mph 6.2 mph 88% 0 in 0.00 W/m2
19:24 27 °F 23.9 °F 30.28 in SW 11.5 mph 6.9 mph 88% 0 in 0.00 W/m2
19:29 26.8 °F 23.7 °F 30.27 in North 12.7 mph 6.3 mph 88% 0 in 0.00 W/m2
19:34 26.7 °F 23.4 °F 30.27 in SW 11.5 mph 8 mph 87% 0 in 0.00 W/m2
19:39 26.6 °F 23.5 °F 30.27 in WSW 11.5 mph 8.7 mph 88% 0 in 0.00 W/m2
19:44 26.6 °F 23.5 °F 30.27 in WSW 9.2 mph 5.3 mph 88% 0 in 0.00 W/m2
19:49 26.5 °F 23.4 °F 30.27 in SSW 9.2 mph 6.1 mph 88% 0 in 0.00 W/m2
19:54 26.4 °F 23.3 °F 30.27 in WSW 10.4 mph 6.6 mph 88% 0 in 0.00 W/m2
19:59 26.3 °F 23 °F 30.27 in North 12 mph 8.2 mph 87% 0 in 0.00 W/m2
20:04 26.2 °F 22.9 °F 30.27 in SSW 8.1 mph 4.9 mph 87% 0 in 0.00 W/m2
20:09 26.2 °F 22.9 °F 30.27 in SW 10.4 mph 8.1 mph 87% 0 in 0.00 W/m2
20:14 26.1 °F 22.8 °F 30.27 in SW 11.5 mph 6 mph 87% 0 in 0.00 W/m2
20:19 26.1 °F 22.8 °F 30.26 in SSW 8.1 mph 2.7 mph 87% 0 in 0.00 W/m2
20:24 26 °F 22.7 °F 30.26 in SW 12.7 mph 5.5 mph 87% 0 in 0.00 W/m2
20:29 26 °F 22.7 °F 30.25 in SSW 7 mph 5.2 mph 87% 0 in 0.00 W/m2
20:34 26 °F 22.7 °F 30.24 in SSW 10.4 mph 6.6 mph 87% 0 in 0.00 W/m2
20:39 26 °F 22.7 °F 30.25 in SSW 11.5 mph 7.2 mph 87% 0 in 0.00 W/m2
20:44 26 °F 22.7 °F 30.25 in SW 11.5 mph 8.1 mph 87% 0 in 0.00 W/m2
20:49 25.9 °F 22.6 °F 30.25 in WSW 11.5 mph 8.3 mph 87% 0 in 0.00 W/m2
20:54 25.8 °F 22.5 °F 30.25 in SW 9.2 mph 5.8 mph 87% 0 in 0.00 W/m2
20:59 25.8 °F 22.5 °F 30.25 in SSW 8.1 mph 4.2 mph 87% 0 in 0.00 W/m2
21:04 25.8 °F 22.5 °F 30.24 in WSW 9.2 mph 3.9 mph 87% 0 in 0.00 W/m2
21:09 25.7 °F 22.4 °F 30.24 in SW 11.5 mph 6.8 mph 87% 0 in 0.00 W/m2
21:14 25.7 °F 22.4 °F 30.24 in SSW 10.4 mph 3.9 mph 87% 0 in 0.00 W/m2
21:19 25.7 °F 22.4 °F 30.24 in WSW 6.9 mph 5.3 mph 87% 0 in 0.00 W/m2
21:24 25.7 °F 22.4 °F 30.24 in WSW 11.5 mph 7.9 mph 87% 0 in 0.00 W/m2
21:29 25.6 °F 22.3 °F 30.23 in West 17.3 mph 8.1 mph 87% 0 in 0.00 W/m2
21:34 25.5 °F 22.2 °F 30.23 in SW 10.4 mph 3.7 mph 87% 0 in 0.00 W/m2
21:39 25.5 °F 22.2 °F 30.23 in SW 9.2 mph 4.1 mph 87% 0 in 0.00 W/m2
21:44 25.5 °F 22.2 °F 30.24 in North 10.4 mph 5.4 mph 87% 0 in 0.00 W/m2
21:49 25.5 °F 22.2 °F 30.23 in SW 8.1 mph 3.1 mph 87% 0 in 0.00 W/m2
21:54 25.4 °F 22.1 °F 30.24 in WSW 11 mph 8.5 mph 87% 0 in 0.00 W/m2
21:59 25.3 °F 21.7 °F 30.24 in SSW 8 mph 4.8 mph 86% 0 in 0.00 W/m2
22:04 25.3 °F 21.7 °F 30.24 in North 10.4 mph 8.6 mph 86% 0 in 0.00 W/m2
22:09 25.2 °F 21.6 °F 30.24 in North 12.7 mph 9.3 mph 86% 0 in 0.00 W/m2
22:14 25.1 °F 21.5 °F 30.23 in WSW 15 mph 11.5 mph 86% 0 in 0.00 W/m2
22:19 25.1 °F 21.5 °F 30.23 in SW 9.2 mph 7 mph 86% 0 in 0.00 W/m2
22:24 25 °F 21.4 °F 30.23 in SW 10.4 mph 7.5 mph 86% 0 in 0.00 W/m2
22:29 25.1 °F 21.5 °F 30.23 in SW 10.4 mph 6.4 mph 86% 0 in 0.00 W/m2
22:34 25 °F 21.4 °F 30.23 in North 11.5 mph 9.2 mph 86% 0 in 0.00 W/m2
22:39 24.9 °F 21 °F 30.23 in SW 12.7 mph 9.2 mph 85% 0 in 0.00 W/m2
22:44 24.8 °F 21.2 °F 30.23 in SSW 11.5 mph 8.7 mph 86% 0 in 0.00 W/m2
22:49 24.7 °F 20.8 °F 30.23 in SW 15 mph 6.1 mph 85% 0 in 0.00 W/m2
22:54 24.6 °F 20.7 °F 30.23 in South 12 mph 7 mph 85% 0 in 0.00 W/m2
22:59 24.5 °F 20.6 °F 30.23 in SSW 12.7 mph 6.8 mph 85% 0 in 0.00 W/m2
23:04 24.5 °F 20.6 °F 30.23 in SSW 16.1 mph 7.5 mph 85% 0 in 0.00 W/m2
23:09 24.5 °F 20.9 °F 30.23 in SW 10.4 mph 5.8 mph 86% 0 in 0.00 W/m2
23:14 24.4 °F 20.5 °F 30.23 in SW 12.7 mph 7.2 mph 85% 0 in 0.00 W/m2
23:19 24.3 °F 20.4 °F 30.23 in WSW 17.3 mph 7.8 mph 85% 0 in 0.00 W/m2
23:24 24.1 °F 20.2 °F 30.23 in WSW 13.8 mph 10 mph 85% 0 in 0.00 W/m2
23:29 24.1 °F 20.2 °F 30.23 in WSW 11.5 mph 8.6 mph 85% 0 in 0.00 W/m2
23:34 24.1 °F 20.2 °F 30.23 in SW 12.7 mph 8.1 mph 85% 0 in 0.00 W/m2
23:39 24 °F 20.1 °F 30.23 in South 13.8 mph 8.4 mph 85% 0 in 0.00 W/m2
23:44 23.9 °F 20 °F 30.23 in SW 17.3 mph 10.7 mph 85% 0 in 0.00 W/m2
23:49 23.9 °F 20 °F 30.23 in SW 11.5 mph 8.3 mph 85% 0 in 0.00 W/m2
23:54 23.9 °F 20 °F 30.23 in WSW 11.5 mph 6.5 mph 85% 0 in 0.00 W/m2
23:59 24 °F 20.4 °F 30.23 in North 12 mph 7.1 mph 86% 0 in 0.00 W/m2
Bourbonnais, Illinois, USA
Compliments of Weather Underground - 4 mb